Weather History for KMPV - June, 2014

Change the Weather History Date:

Saturday, June 28, 2014

  Actual Average Record
Temperature  
Mean Temperature 66 °F 66 °F  
Max Temperature 83 °F 77 °F 91 °F (1991)
Min Temperature 48 °F 54 °F 40 °F (1980)
Cooling Degree Days 1 3  
Month to date cooling degree days 20 48  
Year to date cooling degree days 21 58  
Since 1 June cooling degree days 20 48  
Growing Degree Days 15 (Base 50)    
Moisture  
Dew Point 53 °F    
Average Humidity 67    
Maximum Humidity 100    
Minimum Humidity 33    
Precipitation  
Precipitation 0.00 in 0.13 in 1.59 in (2010)
Month to date precipitation 4.02 3.56  
Year to date precipitation 16.62 16.47  
Sea Level Pressure  
Sea Level Pressure 30.30 in    
Wind  
Wind Speed 2 mph (West)    
Max Wind Speed 10 mph    
Max Gust Speed 14 mph    
Visibility 10 miles    
Events      
T = Trace of Precipitation, MM = Missing Value Source: NWS Daily Summary

Daily Weather History Graph

Daily Weather History Graph

Search for Another Location

Airport or City:

Trip Planner

Search our weather history database for the weather conditions in past years. The results will help you decide how hot, cold, wet, or windy it might be!

Date:

Astronomy

Jun. 28, 2014 Rise Set
Actual Time 5:08 AM EDT 8:37 PM EDT
Civil Twilight 4:32 AM EDT 9:14 PM EDT
Nautical Twilight 3:44 AM EDT 10:02 PM EDT
Astronomical Twilight 2:43 AM EDT 11:03 PM EDT
Moon 6:34 AM EDT 9:15 PM EDT
Length of Visible Light 16h 41m
Length of Day
15h 28m
New Moon, 2% of the Moon is Illuminated
Jun 28
New Moon
Jul 5
First Quarter
Jul 12
Full
Jul 18
Last Quarter
Jul 26
New

Hourly Weather History & Observations

Time (EDT) Temp. Heat Index Dew Point Humidity Pressure Visibility Wind Dir Wind Speed Gust Speed Precip Events Conditions
12:51 AM 54.0 °F - 51.1 °F 90% 30.26 in 10.0 mi SSE 3.5 mph - N/A   Clear
1:51 AM 52.0 °F - 51.1 °F 97% 30.27 in 10.0 mi Calm Calm - N/A   Clear
2:51 AM 52.0 °F - 48.9 °F 89% 30.29 in 10.0 mi Calm Calm - N/A   Clear
3:51 AM 50.0 °F - 48.9 °F 96% 30.29 in 10.0 mi Calm Calm - N/A   Clear
4:51 AM 50.0 °F - 48.2 °F 94% 30.30 in 10.0 mi Calm Calm - N/A   Clear
5:23 AM 48.9 °F - 48.0 °F 97% 30.31 in 2.5 mi Calm Calm - N/A   Clear
5:48 AM 50.0 °F - 48.2 °F 94% 30.32 in 9.0 mi Calm Calm - N/A   Clear
5:51 AM 51.1 °F - 50.0 °F 96% 30.32 in 8.0 mi Calm Calm - N/A   Clear
6:51 AM 54.0 °F - 52.0 °F 93% 30.33 in 10.0 mi Calm Calm - N/A   Clear
7:51 AM 60.1 °F - 55.0 °F 83% 30.34 in 10.0 mi Calm Calm - N/A   Clear
8:51 AM 64.0 °F - 57.0 °F 78% 30.34 in 10.0 mi Calm Calm - N/A   Clear
9:51 AM 69.1 °F - 57.9 °F 68% 30.33 in 10.0 mi Calm Calm - N/A   Clear
10:51 AM 75.9 °F - 59.0 °F 56% 30.33 in 10.0 mi Variable 3.5 mph - N/A   Clear
11:51 AM 78.1 °F - 53.1 °F 42% 30.33 in 10.0 mi NW 5.8 mph - N/A   Clear
12:51 PM 80.1 °F 79.9 °F 53.1 °F 39% 30.31 in 10.0 mi Variable 3.5 mph - N/A   Clear
1:51 PM 82.0 °F - 50.0 °F 33% 30.30 in 10.0 mi Calm Calm - N/A   Clear
2:51 PM 82.4 °F - 51.8 °F 35% 30.29 in 10.0 mi Variable 3.5 mph - N/A   Scattered Clouds
3:51 PM 80.1 °F 79.9 °F 53.1 °F 39% 30.29 in 10.0 mi Variable 6.9 mph - N/A   Mostly Cloudy
4:51 PM 80.6 °F 80.5 °F 55.4 °F 42% 30.28 in 10.0 mi NNW 4.6 mph - N/A   Clear
5:51 PM 79.0 °F - 53.1 °F 40% 30.28 in 10.0 mi WNW 3.5 mph - N/A   Clear
6:51 PM 79.0 °F - 57.9 °F 48% 30.27 in 10.0 mi Calm Calm - N/A   Overcast
7:51 PM 72.0 °F - 60.1 °F 66% 30.27 in 10.0 mi SW 4.6 mph - N/A   Clear
8:51 PM 68.0 °F - 55.9 °F 65% 30.27 in 10.0 mi Calm Calm - N/A   Clear
9:51 PM 64.0 °F - 55.9 °F 75% 30.28 in 10.0 mi Calm Calm - N/A   Clear
10:51 PM 60.8 °F - 55.4 °F 82% 30.28 in 10.0 mi Calm Calm - N/A   Clear
11:51 PM 60.8 °F - 57.2 °F 88% 30.29 in 10.0 mi Calm Calm - N/A   Clear